Regional Weather Roundup
Issued by NWS

Home | Current Version | Previous Version | Text Only | Print | Product List | Glossary On
Versions: 1 2 3 4 5 6 7 8 9 10 11 12 13 14 15 16 17 18 19 20 21 22 23 24 25 26 27 28 29 30 31 32 33 34 35 36 37 38 39 40 41 42 43 44 45 46 47 48 49 50
000
ASUS43 KMPX 211201
RWRMN
WEATHER ROUNDUP FOR MINNESOTA
NATIONAL WEATHER SERVICE TWIN CITIES/CHANHASSEN MN
700 AM CDT TUE OCT 21 2014


NOTE: "FAIR" INDICATES FEW OR NO CLOUDS BELOW 12,000 FEET WITH NO
SIGNIFICANT WEATHER AND/OR OBSTRUCTIONS TO VISIBILITY. N/A MEANS
CURRENT SKY AND/OR WEATHER CONDITIONS ARE NOT AVAILABLE.

MNZ060>063-068>070-211300-
   Twin Cities Metro

CITY           SKY/WX    TMP DP  RH WIND       PRES   REMARKS
TWIN CITIES    CLEAR     40  37  89 NE3       30.17R
6HR MIN TEMP:  38; 6HR MAX TEMP:  43;

ST PAUL        CLEAR     37  36  96 CALM      30.18S
CRYSTAL        CLEAR     33  31  92 CALM      30.16R
BLAINE         CLEAR     34  34 100 CALM      30.17R FOG
LAKEVILLE      FOG       30  30 100 CALM      30.17R VSB 1/4
EDEN PRAIRIE   CLEAR     39  37  92 NE3       30.16R
6HR MIN TEMP:  38; 6HR MAX TEMP:  45;

SOUTH ST PAUL  CLEAR     37  36  94 CALM      30.17S
LAKE ELMO      FAIR      32  32 100 CALM      30.18S
$$
MNZ001>005-007-008-013>017-022>024-027-028-211300-
   Northwest Minnesota

CITY           SKY/WX    TMP DP  RH WIND       PRES   REMARKS
BEMIDJI        CLEAR     32  32 100 SE6       30.12S WCI  26
HALLOCK        CLEAR     39  36  87 SE10      30.04S
ROSEAU         CLEAR     37  34  87 SE8       30.09S
WARROAD        CLEAR     37  34  87 SE9       30.11S
THIEF RVR FALL CLEAR     36  34  93 SE9       30.07S
CROOKSTON      CLEAR     39  37  93 SE12      30.06F
FOSSTON        FAIR      37  34  87 SE8       30.08F
DETROIT LAKES  CLEAR     39  37  93 SE12      30.10S
MOORHEAD       CLEAR     43  43 100 SE10      30.06F
PARK RAPIDS    CLEAR     35  34  96 SE7       30.12S WCI  29
MAHNOMEN       FAIR      40  37  87 SE9G16    30.08S
$$
MNZ006-009>011-018-025>026-211300-
   North Central Minnesota

CITY           SKY/WX    TMP DP  RH WIND       PRES   REMARKS
BAUDETTE       CLEAR     35  32  88 SE6       30.14S WCI  30
FLAG ISLAND    CLEAR     41  37  87 SE16      30.11S
INTL FALLS     CLOUDY    40  34  79 SE6       30.17S
6HR MIN TEMP:  40; 6HR MAX TEMP:  42;

WASKISH        FAIR      30  30 100 CALM      30.14S
BIG FORK       CLEAR     34  32  93 E3        30.17S
LONGVILLE      CLEAR     28  27  93 CALM      30.15R
GRAND RAPIDS   PTCLDY    37  34  87 SE6       30.17R
CRANE LAKE     CLOUDY    37  36  93 CALM      30.22R
ORR            MOCLDY    36  30  80 CALM      30.16S
COOK           CLOUDY    39  34  81 E3        30.19S
WALKER         FAIR      37  34  90 SE3       30.14R
$$
MNZ012-019>021-037-211300-
   Northeast Minnesota

CITY           SKY/WX    TMP DP  RH WIND       PRES   REMARKS
DULUTH         CLOUDY    42  35  76 E10       30.19R
6HR MIN TEMP:  42; 6HR MAX TEMP:  45;

ELY            CLOUDY    37  34  87 SE3       30.21R
HIBBING        CLOUDY    41  34  76 SE7       30.19R
EVELETH        CLOUDY    39  34  81 SE5       30.21R
DULUTH HARBOR  CLOUDY    45  39  81 E12       30.22S
TWO HARBORS    CLOUDY    45  27  49 E3        30.20S
SILVER BAY     MOCLDY    43  36  75 NE6       30.21S
GRAND MARAIS     N/A     40  31  70 NE3       30.26R
G MARAIS ARPRT CLOUDY    32  27  80 N3        30.22R
$$
MNZ029>031-032-039>041-046>048-054>057-064-211300-
   West Central Minnesota

CITY           SKY/WX    TMP DP  RH WIND       PRES   REMARKS
FERGUS FALLS   CLEAR     43  36  75 SE13      30.10S
WHEATON        CLEAR     37  34  87 SE10      30.09S
MORRIS         CLEAR     41  37  87 SE13      30.09F
ALEXANDRIA     CLEAR     38  36  92 SE8       30.13S
ELBOW LAKE     FAIR      42  38  86 SE13      30.09F
WADENA         CLEAR     34  32  93 SE6       30.12S WCI  29
GLENWOOD       CLEAR     36  34  93 E8        30.13S
APPLETON       CLEAR     39  37  93 SE8       30.09F
BENSON         CLEAR     41  37  87 SE9       30.11F
ORTONVILLE     CLEAR     37  34  87 SE7       30.08F
MADISON        CLEAR     39  37  93 SE7       30.09F
WILLMAR        FAIR      41  37  87 SE8       30.15R
$$
MNZ033>034-036-042>043-049>051-058-059-211300-
   Central Minnesota

CITY           SKY/WX    TMP DP  RH WIND       PRES   REMARKS
ST CLOUD       CLEAR     38  34  85 E3        30.16R
6HR MIN TEMP:  36; 6HR MAX TEMP:  41;

SAUK CENTRE    FAIR      35  34  99 E6        30.14F WCI  30
PAYNESVILLE    CLEAR     36  35  97 NE5       30.16R
AITKIN         PTCLDY    28  25  86 CALM      30.15S
PINE RIVER     CLEAR     36  34  93 SE3       30.17S
BRAINERD       CLEAR     30  29  96 CALM      30.16R
STAPLES        CLEAR     34  34 100 E3        30.14S
LONG PRAIRIE   FAIR      34  34 100 E5        30.14F WCI  30
LITTLE FALLS   CLEAR     37  34  87 E3        30.16R
LITCHFIELD     CLEAR     37  37 100 E3        30.16R FOG
BUFFALO        CLEAR     33  32  94 E6        30.17S WCI  28
MAPLE LAKE     CLEAR     33  33 100 CALM      30.17S FOG
$$
MNZ037-044-045-052-053-211300-
   East Central Minnesota

CITY           SKY/WX    TMP DP  RH WIND       PRES   REMARKS
PRINCETON      CLEAR     30  28  93 CALM      30.17S FOG
MORA           CLEAR     32  32 100 CALM      30.19S
CAMBRIDGE      CLEAR     34  27  75 CALM      30.16R
RUSH CITY      CLEAR     36  35  96 CALM      30.18S
MOOSE LAKE     CLOUDY    43  36  75 E5        30.18R
HINCKLEY       PTSUNNY   37  36  93 CALM      30.18S
CLOQUET        CLOUDY    43  37  81 E5        30.19R
MCGREGOR       PTCLDY    30  30 100 E3        30.18R
$$
MNZ071>073-080-081-089-090-097-098-211300-
   Southwest Minnesota

CITY           SKY/WX    TMP DP  RH WIND       PRES   REMARKS
MONTEVIDEO     CLEAR     36  36 100 S8        30.12S
GRANITE FALLS  CLEAR     38  35  92 E6        30.13F
CANBY          CLEAR     34  33  95 SE6       30.10S WCI  29
MARSHALL       CLEAR     37  32  81 SE7       30.10R
REDWOOD FALLS  CLEAR     39  36  89 E6        30.13R
OLIVIA         CLEAR     39  36  87 E8        30.13S
PIPESTONE      CLEAR     48  37  66 S9        30.09S
WINDOM         CLEAR     36  34  93 CALM      30.12S
WORTHINGTON    CLEAR     37  36  93 S3        30.12S
JACKSON        CLEAR     36  32  87 SE3       30.12F
TRACY          CLEAR     40  37  86 SE3       30.11S
SLAYTON        CLEAR     38  35  88 CALM      30.12R
$$
MNZ065>067-074>077-082>085-091>093-211300-
   South Central Minnesota

CITY           SKY/WX    TMP DP  RH WIND       PRES   REMARKS
MANKATO        CLEAR     39  34  81 E7        30.15R
NEW ULM        CLEAR     39  39 100 E3        30.14S
ST JAMES       CLEAR     36  34  93 E3        30.14S
FAIRMONT       CLEAR     32  27  80 CALM      30.13S
GLENCOE        CLEAR     38  38  97 E3        30.15R
FARIBAULT      CLEAR     30  28  93 CALM      30.16R
OWATONNA       CLEAR     37  36  93 E6        30.16R
WASECA         CLEAR     36  32  87 CALM      30.16S
ALBERT LEA     CLEAR     36  36 100 CALM      30.14S
$$
MNZ078>079-086>088-094>096-211300-
   Southeast Minnesota

CITY           SKY/WX    TMP DP  RH WIND       PRES   REMARKS
ROCHESTER      CLEAR     37  35  92 E7        30.17R
6HR MIN TEMP:  37; 6HR MAX TEMP:  43;

RED WING       CLEAR     32  30  93 CALM      30.17S
STANTON        FOG       31  30  94 CALM      30.16R VSB 1
DODGE CENTER   CLEAR     36  36 100 E3        30.16R
WINONA         CLEAR     37  36  93 CALM      30.19R
AUSTIN         CLEAR     36  34  93 CALM      30.15R
PRESTON        CLEAR     36  35  94 NE3       30.16S
$$
ABBREVIATIONS USED IN REMARKS
   TC - TEMPERATURES IN CELSIUS
  WCI - WIND CHILL INDEX
   HX - HEAT INDEX
  VSB - VISIBILITY
$$



USA.gov is the U.S. government's official web portal to all federal, state and local government web resources and services.